Regional Weather Roundup
Issued by NWS

Home | Current Version | Previous Version | Graphics & Text | Print | Product List | Glossary On
Versions: 1 2 3 4 5 6 7 8 9 10 11 12 13 14 15 16 17 18 19 20 21 22 23 24 25 26 27 28 29 30 31 32 33 34 35 36 37 38 39 40 41 42 43 44 45 46 47 48 49 50
000
ASUS43 KLOT 210106
RWRIL

ILLINOIS REGIONAL WEATHER ROUNDUP
NATIONAL WEATHER SERVICE CHICAGO/ROMEOVILLE IL
800 PM CDT WED AUG 20 2014

NOTE: "FAIR" INDICATES FEW OR NO CLOUDS BELOW 12,000 FEET WITH NO
SIGNIFICANT WEATHER AND/OR OBSTRUCTIONS TO VISIBILITY.

* THESE STATIONS ARE NOT UNDER NWS QUALITY CONTROL. THEY ALSO MAY NOT
  REPORT WEATHER SUCH AS PRECIPITATION OR FOG.

ILZ001-002-007-009-015-016-024-210200-
NORTHWEST ILLINOIS

CITY           SKY/WX    TMP DP  RH WIND       PRES   REMARKS
MOLINE         MOCLDY    76  69  79 CALM      29.89S
STERLING*      CLOUDY    72  66  83 NW5       29.93R
SAVANNA*       LGT RAIN  75  67  78 SW6       29.89F
$$

ILZ003-004-008-010-011-017-018-210200-
NORTH CENTRAL ILLINOIS

CITY           SKY/WX    TMP DP  RH WIND       PRES   REMARKS
ROCKFORD       MOCLDY    77  68  73 SW13G18   29.92R
FREEPORT*      CLOUDY    75  71  86 W9G16     29.95R
ROCHELLE*      MOCLDY    73  67  81 W7        29.93R
DE KALB*       PTCLDY    74  68  83 W9        29.92R
PERU*          CLOUDY    74  67  79 NW5       29.92R
$$

ILZ005-006-012>014-019>023-210200-
NORTHEAST ILLINOIS

CITY           SKY/WX    TMP DP  RH WIND       PRES   REMARKS
CHICAGO-OHARE  MOCLDY    80  64  58 W6        29.88S HX  82
CHICAGO-MIDWAY PTCLDY    81  68  64 SW7       29.88S HX  84
AURORA         PTCLDY    76  69  79 SW10      29.91R
LANSING*       CLEAR     78  70  75 W6        29.90R HX  80
JOLIET*        PTCLDY    76  67  76 W10       29.92R
WAUKEGAN       MOCLDY    74  68  81 N3        29.87F
DUPAGE AIRPORT PTCLDY    78  69  73 SW12      29.89F HX  80
KANKAKEE*      PTCLDY    72  68  86 SW3       29.92S
WHEELING       PTCLDY    82  66  58 SW7       29.89S HX  84
MORRIS*        PTCLDY    74  69  85 W5        29.92R
ROMEOVILLE*    PTCLDY    75  69  80 W10       29.91R
NORTHERLY ISL    N/A     81  65  58 SW6         N/A  HX  83
$$

LMZ740>746-210200-
SOUTHERN LAKE MICHIGAN

STATION/POSITION SKY/WX   TEMP    WIND        PRES    VSBY  WAVE
                          AIR SEA DIR/SP/G                  HT/PER
                          (F)     (DEG/KT/KT) (MB)    (MI)  (FT/S)
SOUTHERN BUOY              69 68   60/  6/  6 1012.5R         0
WAUKEGAN HARBOR            81     250/  7/ 10   N/A
HARRISON CRIB              81     250/ 14/ 17   N/A
BURNHAM HARBOR             81     270/  6/ 12   N/A
CALUMET HARBOR             81     220/  4/ 11 1010.9R
MICHIGAN CITY              80     180/  5/  6   N/A
MICHIGAN CITY 6N           76 73  230/  6/  6   N/A           1
ST. JOSEPH                 75 71   30/  2/  4   N/A           0
$$

ILZ025>027-034>036-040-047-049-050-058-095>099-210200-
WEST-CENTRAL ILLINOIS

CITY           SKY/WX    TMP DP  RH WIND       PRES   REMARKS
QUINCY         CLEAR     81  77  88 S6        29.89S HX  88
GALESBURG*     MOCLDY    75  71  86 CALM      29.89F
MACOMB*        PTCLDY    75  74  94 SE3       29.92S
JACKSONVILLE*  PTCLDY    79  73  82 S5        29.92S HX  82
PITTSFIELD*    CLEAR     79  74  85 SE5       29.91F HX  83
$$

ILZ028>032-037-038-041>044-048-051>054-059>061-210200-
CENTRAL ILLINOIS

CITY           SKY/WX    TMP DP  RH WIND       PRES   REMARKS
PONTIAC        CLOUDY    73  72  94 CALM      29.90F
DECATUR        CLEAR     75  71  87 S5        29.94S
PEORIA         CLEAR     77  71  82 S3        29.90F
LACON*         MOCLDY    74  71  88 W3        29.89S
LINCOLN*       PTCLDY    77  72  83 CALM      29.90R
SPRINGFIELD    PTCLDY    77  71  82 S3        29.92F
TAYLORVILLE    CLEAR     72  70  94 SE5       29.93R
$$

ILZ033-039-045-046-055>057-062-063-210200-
EAST-CENTRAL ILLINOIS

CITY           SKY/WX    TMP DP  RH WIND       PRES   REMARKS
CHAMPAIGN      MOCLDY    73  70  90 S7        29.94S
DANVILLE*      RAIN      72  69  91 SW5       29.91R
RANTOUL*       CLOUDY    75  69  79 CALM      29.94S
MATTOON        CLEAR     73  70  90 CALM      29.95R
PARIS*         CLEAR     71  70  99 S5        29.96S
$$

ILZ079-100>102-210200-
SOUTHWEST ILLINOIS

CITY           SKY/WX    TMP DP  RH WIND       PRES   REMARKS
ALTON          CLEAR     77  75  94 SE7       29.94R
BELLEVILLE     CLEAR     79  74  86 E3        29.94R HX  82
CAHOKIA*       CLEAR     81  75  82 SE8       29.92R HX  87
SPARTA*        CLEAR     77  73  87 E7        29.94S
$$

ILZ064>066-069>071-074>076-080>082-084>086-088>090-092>094-210200-
SOUTH-CENTRAL ILLINOIS

CITY           SKY/WX    TMP DP  RH WIND       PRES   REMARKS
CARBONDALE     PTCLDY    78  73  84 E7        29.95R HX  81
CAIRO*         PTCLDY    87  75  66 S5        29.96R HX  96
MARION         PTCLDY    81  73  78 E6        29.97R HX  85
MT. VERNON     CLEAR     77  68  73 CALM      29.97R
CENTRALIA*     CLEAR     74  69  84 SE5       29.96R
SALEM*         CLEAR     78  73  84 SE5       29.96R HX  80
$$

ILZ067-068-072-073-078-083-087-091-210200-
SOUTHEAST ILLINOIS

CITY           SKY/WX    TMP DP  RH WIND       PRES   REMARKS
LAWRENCEVILLE  CLEAR     75  72  90 CALM      29.97R
FLORA*         CLEAR     74  71  89 S5        29.97R
FAIRFIELD*     CLEAR     75  73  94 CALM      29.97R
HARRISBURG*    MOCLDY    78  73  85 SE6       29.99R HX  80
ROBINSON*      CLEAR     73  71  93 S3        29.97R
CARMI*         PTCLDY    75  73  94 SE5       29.98R
$$

ABBREVIATIONS USED IN REMARKS
   TC - TEMPERATURE IN CELSIUS
  WCI - WIND CHILL INDEX
   HX - HEAT INDEX
  VSB - VISIBILITY
$$



USA.gov is the U.S. government's official web portal to all federal, state and local government web resources and services.